Regional Weather Roundup
Issued by NWS

Home | Current Version | Previous Version | Text Only | Print | Product List | Glossary Off
Versions: 1 2 3 4 5 6 7 8 9 10 11 12 13 14 15 16 17 18 19 20 21 22 23 24 25 26 27 28 29 30 31 32 33 34 35 36 37 38 39 40 41 42 43 44 45 46 47 48 49 50

000
ASUS43 KMPX 011201
RWRMN
WEATHER ROUNDUP FOR MINNESOTA
NATIONAL WEATHER SERVICE TWIN CITIES/CHANHASSEN MN
700 AM CDT WED JUL 01 2015


NOTE: "FAIR" INDICATES FEW OR NO CLOUDS BELOW 12,000 FEET WITH NO
SIGNIFICANT WEATHER AND/OR OBSTRUCTIONS TO VISIBILITY. N/A MEANS
CURRENT SKY AND/OR WEATHER CONDITIONS ARE NOT AVAILABLE.

MNZ060>063-068>070-011300-
   Twin Cities Metro

CITY           SKY/WX    TMP DP  RH WIND       PRES   REMARKS
TWIN CITIES    CLOUDY    59  49  69 E8        30.00R
6HR MIN TEMP:  59; 6HR MAX TEMP:  63;

ST PAUL        PTSUNNY   58  49  72 E3        30.01R
CRYSTAL        CLOUDY    61  48  62 E6        29.98R
BLAINE         CLOUDY    61  52  72 SE3       30.00R
LAKEVILLE      MOSUNNY   54  52  94 CALM      29.99R
EDEN PRAIRIE   PTSUNNY   59  50  72 E7        29.98R
6HR MIN TEMP:  59; 6HR MAX TEMP:  64;

SOUTH ST PAUL  PTSUNNY   58  48  69 E3        30.00R
LAKE ELMO      FAIR      55  50  82 CALM      30.02R
$$
MNZ001>005-007-008-013>017-022>024-027-028-011300-
   Northwest Minnesota

CITY           SKY/WX    TMP DP  RH WIND       PRES   REMARKS
BEMIDJI        MOSUNNY   58  56  94 CALM      29.98R
HALLOCK        SUNNY     57  55  94 E3        29.94S
ROSEAU         SUNNY     55  52  88 CALM      29.96S
WARROAD        SUNNY     57  54  88 SW3       29.97R
THIEF RVR FALL SUNNY     57  54  88 CALM      29.96R
CROOKSTON      SUNNY     59  55  88 E3        29.95R
FOSSTON        MOSUNNY   57  52  82 CALM      29.96S
DETROIT LAKES  MOSUNNY   63  59  88 SE3       29.98R
MOORHEAD       MOSUNNY   63  61  94 CALM      29.95S
PARK RAPIDS    MOSUNNY   61  56  83 SE8       29.98R
MAHNOMEN       FAIR      61  58  91 SE5       29.95R
$$
MNZ006-009>011-018-025>026-011300-
   North Central Minnesota

CITY           SKY/WX    TMP DP  RH WIND       PRES   REMARKS
BAUDETTE       SUNNY     54  51  90 CALM      29.97R
FLAG ISLAND    SUNNY     64  55  72 S3        29.95S HAZE
INTL FALLS     SUNNY     51  49  92 CALM      29.98R
6HR MIN TEMP:  43; 6HR MAX TEMP:  51;

WASKISH        SUNNY     54  52  94 CALM      29.98R
BIG FORK       SUNNY     54  54 100 CALM      30.00R
LONGVILLE      PTSUNNY   57  55  94 CALM      29.99R
GRAND RAPIDS   MOSUNNY   50  46  87 CALM      30.01R
CRANE LAKE     SUNNY     45  45 100 CALM      30.02R
ORR            SUNNY     50  46  87 CALM      29.98S
COOK           SUNNY     48  46  93 CALM      30.01S
WALKER         FAIR      60  55  84 S5        29.98R
$$
MNZ012-019>021-037-011300-
   Northeast Minnesota

CITY           SKY/WX    TMP DP  RH WIND       PRES   REMARKS
DULUTH         MOSUNNY   52  49  89 CALM      30.02R
6HR MIN TEMP:  48; 6HR MAX TEMP:  52;

ELY            MOSUNNY   45  45 100 CALM      30.01S
HIBBING        MOSUNNY   46  44  93 CALM      30.02R
EVELETH        SUNNY     45  45 100 CALM      30.03R
DULUTH HARBOR  MOSUNNY   55  52  88 N6        30.03R
TWO HARBORS    MOSUNNY   48  45  87 NW1       30.00S
SILVER BAY     MOSUNNY   46  45  93 CALM      30.01R
GRAND MARAIS     N/A     48  43  82 CALM      30.02R
G MARAIS ARPRT SUNNY     45  39  81 CALM      30.02S
$$
MNZ029>031-032-039>041-046>048-054>057-064-011300-
   West Central Minnesota

CITY           SKY/WX    TMP DP  RH WIND       PRES   REMARKS
FERGUS FALLS   CLOUDY    63  63 100 S8        29.95S
WHEATON        LGT RAIN  61  57  88 SE8       29.96R
MORRIS         RAIN      63  59  88 E9        29.94S
ALEXANDRIA     CLOUDY    61  59  93 SE7       29.99S
ELBOW LAKE     DRIZZLE   62  59  91 SE9       29.95F
WADENA           N/A     61  57  88 SE5       29.98R
GLENWOOD       CLOUDY    61  59  94 SE5       29.98F
APPLETON       RAIN      63  57  82 SE9       29.94S
BENSON         LGT RAIN  61  55  82 SE7       29.96F
ORTONVILLE     LGT RAIN  61  57  88 SE8       29.94R
MADISON        LGT RAIN  63  59  88 E9        29.94S
WILLMAR        LGT RAIN  63  57  82 E5        29.99R
$$
MNZ033>034-036-042>043-049>051-058-059-011300-
   Central Minnesota

CITY           SKY/WX    TMP DP  RH WIND       PRES   REMARKS
ST CLOUD       CLOUDY    59  54  83 CALM      29.99R
6HR MIN TEMP:  58; 6HR MAX TEMP:  62;

SAUK CENTRE    LGT RAIN  59  58  94 CALM      29.99S
PAYNESVILLE    CLOUDY    57  54  88 E3        29.99R
AITKIN         PTSUNNY   55  52  88 CALM      29.99R
PINE RIVER     PTSUNNY   57  55  94 SE3       30.02S
BRAINERD       PTSUNNY   56  53  90 SE5       30.00R
STAPLES        CLOUDY    61  55  82 SE5       29.99R
LONG PRAIRIE   DRIZZLE   59  55  88 SE3       30.00R
LITTLE FALLS   CLOUDY    59  52  77 SE3       30.00R
LITCHFIELD     CLOUDY    63  55  77 E6        29.99R
BUFFALO        CLOUDY    59  50  72 CALM      30.00R
MAPLE LAKE     CLOUDY    61  52  71 E5        30.00S
$$
MNZ037-044-045-052-053-011300-
   East Central Minnesota

CITY           SKY/WX    TMP DP  RH WIND       PRES   REMARKS
PRINCETON      CLOUDY    59  54  82 CALM      30.00R
MORA           PTSUNNY   54  52  94 CALM      30.02S
CAMBRIDGE      CLOUDY    61  48  63 CALM      29.99R
RUSH CITY      PTSUNNY   54  51  89 CALM      30.02R
MOOSE LAKE     PTSUNNY   50  50 100 CALM      30.00R
HINCKLEY       FAIR      52  52 100 CALM      30.01S
CLOQUET        MOSUNNY   52  48  87 CALM      30.02R
MCGREGOR       PTSUNNY   52  50  93 CALM      30.02R
$$
MNZ071>073-080-081-089-090-097-098-011300-
   Southwest Minnesota

CITY           SKY/WX    TMP DP  RH WIND       PRES   REMARKS
MONTEVIDEO     LGT RAIN  61  59  94 SE7       29.97R
GRANITE FALLS  CLOUDY    61  57  87 E7        29.97R
CANBY          RAIN      61  59  94 E5        29.95S
MARSHALL       CLOUDY    61  55  82 SE6       29.95R
REDWOOD FALLS  CLOUDY    61  56  83 E7        29.96R
OLIVIA         CLOUDY    59  52  77 E6        29.96S
PIPESTONE      PTSUNNY   63  61  94 E7        29.93S
WINDOM         MOSUNNY   61  55  82 E6        29.96R
WORTHINGTON    CLOUDY    61  55  82 SE8       29.94F
JACKSON        PTSUNNY   61  57  88 E5        29.96R
TRACY          CLOUDY    60  59  95 S3        29.95R FOG
SLAYTON        CLOUDY    60  59  97 CALM      29.94S
$$
MNZ065>067-074>077-082>085-091>093-011300-
   South Central Minnesota

CITY           SKY/WX    TMP DP  RH WIND       PRES   REMARKS
MANKATO        MOSUNNY   61  52  72 E7        29.96F
NEW ULM        MOSUNNY   59  54  82 CALM      29.98R
ST JAMES       MOSUNNY   57  55  94 E3        29.96R
FAIRMONT       MOSUNNY   57  52  82 E7        29.95R
GLENCOE        CLOUDY    59  55  84 E3        29.99R
FARIBAULT      MOSUNNY   55  52  88 CALM      29.99R
OWATONNA       MOSUNNY   57  52  82 E8        29.98R
WASECA         MOSUNNY   55  52  88 E7        29.98R
ALBERT LEA     SUNNY     57  54  88 CALM      29.98R
$$
MNZ078>079-086>088-094>096-011300-
   Southeast Minnesota

CITY           SKY/WX    TMP DP  RH WIND       PRES   REMARKS
ROCHESTER      SUNNY     54  50  86 E8        29.99R
6HR MIN TEMP:  53; 6HR MAX TEMP:  58;

RED WING       MOSUNNY   55  48  76 E5        29.99R
STANTON        MOSUNNY   55  52  88 NE3       29.98R
DODGE CENTER   SUNNY     55  52  88 E6        29.98R
WINONA         MOSUNNY   55  50  82 E3        29.99R
AUSTIN         SUNNY     55  52  88 E5        29.97R
PRESTON        SUNNY     54  49  85 E7        29.99S
$$
ABBREVIATIONS USED IN REMARKS
   TC - TEMPERATURES IN CELSIUS
  WCI - WIND CHILL INDEX
   HX - HEAT INDEX
  VSB - VISIBILITY
$$


USA.gov is the U.S. government's official web portal to all federal, state and local government web resources and services.